Yakima, WA
on Tuesday, December 11, 2012

Tuesday
Previous Day Next Day
Daily Summary
 ActualAverageRecord
Temperature
Mean Temperature °F 29°F  
Max Temperature 42°F 36°F 59°F (2004)
Min Temperature 28°F 21°F -3°F (2009)
Degree Days
Heating Degree Days 30 36  
Month to date heating degree days 270 384  
Since 1 July heating degree days 1508 1917  
Cooling Degree Days 0 0  
Month to date cooling degree days 0 0  
Year to date cooling degree days 667 472  
Moisture
Dew Point 29°F   
Average Humidity 83    
Maximum Humidity 92    
Minimum Humidity 73    
Precipitation
Precipitation T in 0.05 in 0.65 in (2010)
Month to date precipitation 0.74 0.53  
Year to date precipitation 7.93 7.25  
Snow
Snow 0.00 in 0.40 in 5.90 in (2010)
Month to date snowfall T 3.2  
Year to date snowfall 22.2 15.4  
Since 1 July snowfall 0.7 6.8  
Snow Depth 0.00 in   
Wind
Wind Speed 2 mph   
Max Wind Speed 9 mph   
Max Gust Speed 9 mph   
Visibility 7 miles   
Events     

Key: T is trace of precipitation, MM is missing value
Source: NWS Daily Summary
Time(PST)TemperatureDew PointHumidity Pressure Visibility Wind DirectionWind SpeedGust SpeedPrecipitationEvents Conditions
12:53 AM 30.0°F 27.0°F 88% 30.03 in 4.0 miles Calm Calm - N/A   Clear
1:53 AM 30.0°F 28.0°F 92% 30.00 in 5.0 miles Calm Calm - N/A   Clear
2:53 AM 28.0°F 25.0°F 88% 29.96 in 6.0 miles South 3.5 mph - N/A   Clear
3:53 AM 28.9°F 26.1°F 89% 29.92 in 5.0 miles NW 3.5 mph - N/A   Clear
4:53 AM 30.0°F 28.0°F 92% 29.87 in 5.0 miles Calm Calm - 0.00 in   Clear
5:53 AM 30.0°F 27.0°F 88% 29.83 in 6.0 miles NNE 3.5 mph - 0.00 in   Clear
6:53 AM 30.0°F 27.0°F 88% 29.82 in 7.0 miles WNW 3.5 mph - N/A   Clear
7:53 AM 30.0°F 27.0°F 88% 29.78 in 9.0 miles Calm Calm - N/A   Clear
8:53 AM 33.1°F 28.9°F 85% 29.77 in 7.0 miles West 4.6 mph - N/A   Clear
9:53 AM 34.0°F 30.0°F 85% 29.74 in 8.0 miles ESE 4.6 mph - N/A   Clear
10:53 AM 35.1°F 32.0°F 89% 29.73 in 5.0 miles Calm Calm - N/A   Clear
11:53 AM 37.0°F 32.0°F 82% 29.68 in 6.0 miles Calm Calm - N/A   Haze
12:53 PM 37.0°F 32.0°F 82% 29.65 in 7.0 miles SW 4.6 mph - N/A   Clear
1:53 PM 39.0°F 32.0°F 76% 29.63 in 10.0 miles Calm Calm - N/A   Mostly Cloudy
2:53 PM 41.0°F 33.1°F 73% 29.61 in 10.0 miles Calm Calm - N/A   Mostly Cloudy
3:53 PM 39.0°F 32.0°F 76% 29.60 in 10.0 miles Calm Calm - N/A   Mostly Cloudy
4:53 PM 37.9°F 32.0°F 79% 29.58 in 9.0 miles Calm Calm - N/A   Mostly Cloudy
5:53 PM 37.9°F 32.0°F 79% 29.58 in 8.0 miles Calm Calm - N/A   Overcast
6:53 PM 36.0°F 32.0°F 86% 29.58 in 7.0 miles WNW 4.6 mph - 0.00 in   Mostly Cloudy
7:53 PM 34.0°F 30.0°F 85% 29.59 in 8.0 miles WNW 4.6 mph - N/A   Scattered Clouds
8:53 PM 33.1°F 30.0°F 89% 29.59 in 9.0 miles WNW 5.8 mph - N/A   Mostly Cloudy
9:53 PM 30.0°F 27.0°F 88% 29.60 in 9.0 miles Calm Calm - N/A   Clear
10:53 PM 30.0°F 27.0°F 88% 29.60 in 9.0 miles West 5.8 mph - N/A   Partly Cloudy
11:53 PM 32.0°F 28.0°F 85% 29.61 in 9.0 miles SW 4.6 mph - N/A   Mostly Cloudy
Moon Phase
Dec. 11 Dec. 13 Dec. 20 Dec. 28 Jan. 04
Sunrise:07:36 AM (PST) Moon Rise:05:34 AM (PST)12/11
Sunset:04:14 PM (PST) Moon Set:03:00 PM (PST)12/11

Copyright © 2014 The Weather Underground, Inc.